Wetterdaten: Dienstag, 11.03.2014
Datum Zeit Temperatur Luftfeuchte Luftdruck Regen Wind Richtung Richtung Taupunkt Windchill Windben
11.03.2014 00:00 -1,9 C 84 % 1022,2 hPa 0,0 l/m 0,6 km/h (0 Bft) NO 45 -4,2 C -1,8 C 0,0 km/h (0 Bft)
11.03.2014 00:05 -2,2 C 84 % 1022,2 hPa 0,0 l/m 0,0 km/h (0 Bft) N-NO 22 -4,5 C -2,1 C 0,0 km/h (0 Bft)
11.03.2014 00:10 -2,4 C 84 % 1021,9 hPa 0,0 l/m 0,0 km/h (0 Bft) NO 45 -4,7 C -2,3 C 0,0 km/h (0 Bft)
11.03.2014 00:15 -2,5 C 84 % 1021,9 hPa 0,0 l/m 0,0 km/h (0 Bft) N-NO 22 -4,8 C -2,5 C 0,0 km/h (0 Bft)
11.03.2014 00:20 -2,4 C 84 % 1021,9 hPa 0,0 l/m 0,0 km/h (0 Bft) N-NO 22 -4,7 C -2,6 C 0,0 km/h (0 Bft)
11.03.2014 00:25 -2,2 C 85 % 1021,9 hPa 0,0 l/m 0,2 km/h (0 Bft) N-NO 22 -4,4 C -2,6 C 0,0 km/h (0 Bft)
11.03.2014 00:30 -2,1 C 86 % 1022,0 hPa 0,0 l/m 0,2 km/h (0 Bft) N-NO 22 -4,1 C -2,4 C 1,9 km/h (1 Bft)
11.03.2014 00:35 -2,3 C 85 % 1022,0 hPa 0,0 l/m 0,0 km/h (0 Bft) N-NO 22 -4,5 C -2,4 C 0,0 km/h (0 Bft)
11.03.2014 00:40 -2,1 C 86 % 1022,0 hPa 0,0 l/m 0,0 km/h (0 Bft) N-NO 22 -4,1 C -2,4 C 0,0 km/h (0 Bft)
11.03.2014 00:45 -1,9 C 86 % 1022,0 hPa 0,0 l/m 0,0 km/h (0 Bft) O-NO 67 -3,9 C -2,3 C 0,0 km/h (0 Bft)
11.03.2014 00:50 -2,2 C 86 % 1021,9 hPa 0,0 l/m 0,0 km/h (0 Bft) NO 45 -4,2 C -2,4 C 0,0 km/h (0 Bft)
11.03.2014 00:55 -2,3 C 86 % 1021,9 hPa 0,0 l/m 0,0 km/h (0 Bft) N-NO 22 -4,3 C -2,4 C 0,0 km/h (0 Bft)
11.03.2014 01:00 -2,5 C 86 % 1021,9 hPa 0,0 l/m 0,0 km/h (0 Bft) NO 45 -4,5 C -2,5 C 0,0 km/h (0 Bft)
11.03.2014 01:05 -2,5 C 86 % 1021,9 hPa 0,0 l/m 0,0 km/h (0 Bft) NO 45 -4,5 C -2,5 C 0,0 km/h (0 Bft)
11.03.2014 01:10 -2,1 C 87 % 1021,8 hPa 0,0 l/m 0,0 km/h (0 Bft) O 90 -4,0 C -2,7 C 0,0 km/h (0 Bft)
11.03.2014 01:15 -2,3 C 86 % 1021,8 hPa 0,0 l/m 0,0 km/h (0 Bft) NO 45 -4,3 C -2,7 C 0,0 km/h (0 Bft)
11.03.2014 01:20 -2,5 C 86 % 1021,8 hPa 0,0 l/m 0,0 km/h (0 Bft) NO 45 -4,5 C -2,7 C 0,0 km/h (0 Bft)
11.03.2014 01:25 -2,5 C 86 % 1021,8 hPa 0,0 l/m 0,0 km/h (0 Bft) O 90 -4,5 C -2,6 C 0,0 km/h (0 Bft)
11.03.2014 01:30 -2,4 C 86 % 1021,9 hPa 0,0 l/m 0,0 km/h (0 Bft) O 90 -4,4 C -2,5 C 0,0 km/h (0 Bft)
11.03.2014 01:35 -2,5 C 86 % 1021,9 hPa 0,0 l/m 0,0 km/h (0 Bft) N-NO 22 -4,5 C -2,5 C 0,0 km/h (0 Bft)
11.03.2014 01:40 -2,6 C 87 % 1021,9 hPa 0,0 l/m 0,0 km/h (0 Bft) N 360 -4,5 C -2,5 C 0,0 km/h (0 Bft)
11.03.2014 01:45 -2,2 C 87 % 1021,9 hPa 0,0 l/m 0,0 km/h (0 Bft) NO 45 -4,1 C -2,5 C 0,0 km/h (0 Bft)
11.03.2014 01:50 -2,4 C 87 % 1021,9 hPa 0,0 l/m 0,0 km/h (0 Bft) NO 45 -4,3 C -2,4 C 0,0 km/h (0 Bft)
11.03.2014 01:55 -2,6 C 87 % 1021,9 hPa 0,0 l/m 0,2 km/h (0 Bft) S 180 -4,5 C -2,2 C 0,0 km/h (0 Bft)
11.03.2014 02:00 -2,5 C 87 % 1021,9 hPa 0,0 l/m 0,2 km/h (0 Bft) N-NW 337 -4,4 C -2,2 C 2,1 km/h (1 Bft)
11.03.2014 02:05 -2,8 C 87 % 1021,9 hPa 0,0 l/m 0,0 km/h (0 Bft) NW 315 -4,7 C -2,4 C 0,0 km/h (0 Bft)
11.03.2014 02:10 -3,1 C 87 % 1021,9 hPa 0,0 l/m 0,0 km/h (0 Bft) N-NW 337 -4,9 C -2,6 C 0,0 km/h (0 Bft)
11.03.2014 02:15 -2,7 C 87 % 1021,9 hPa 0,0 l/m 0,0 km/h (0 Bft) N-NW 337 -4,6 C -2,8 C 0,0 km/h (0 Bft)
11.03.2014 02:20 -2,4 C 87 % 1021,9 hPa 0,0 l/m 0,5 km/h (0 Bft) O 90 -4,3 C -2,8 C 3,5 km/h (1 Bft)
11.03.2014 02:25 -2,2 C 88 % 1021,9 hPa 0,0 l/m 0,5 km/h (0 Bft) O 90 -3,9 C -2,7 C 0,0 km/h (0 Bft)
11.03.2014 02:30 -2,6 C 87 % 1021,9 hPa 0,0 l/m 0,0 km/h (0 Bft) O-NO 67 -4,5 C -2,7 C 0,0 km/h (0 Bft)
11.03.2014 02:35 -2,7 C 87 % 1021,9 hPa 0,0 l/m 0,0 km/h (0 Bft) O-NO 67 -4,6 C -2,8 C 0,0 km/h (0 Bft)
11.03.2014 02:40 -2,9 C 87 % 1021,9 hPa 0,0 l/m 0,0 km/h (0 Bft) O-NO 67 -4,8 C -2,9 C 0,0 km/h (0 Bft)
11.03.2014 02:45 -2,6 C 87 % 1021,9 hPa 0,0 l/m 0,0 km/h (0 Bft) O-NO 67 -4,5 C -2,5 C 0,0 km/h (0 Bft)
11.03.2014 02:50 -2,5 C 87 % 1021,8 hPa 0,0 l/m 0,0 km/h (0 Bft) O-NO 67 -4,4 C -2,5 C 0,0 km/h (0 Bft)
11.03.2014 02:55 -2,8 C 87 % 1021,8 hPa 0,0 l/m 0,0 km/h (0 Bft) O 90 -4,7 C -2,6 C 0,0 km/h (0 Bft)
11.03.2014 03:00 -2,8 C 87 % 1021,8 hPa 0,0 l/m 0,0 km/h (0 Bft) O 90 -4,7 C -2,7 C 0,0 km/h (0 Bft)
11.03.2014 03:05 -2,8 C 87 % 1021,8 hPa 0,0 l/m 0,0 km/h (0 Bft) NO 45 -4,7 C -2,9 C 0,0 km/h (0 Bft)
11.03.2014 03:10 -3,1 C 87 % 1021,9 hPa 0,0 l/m 0,0 km/h (0 Bft) NO 45 -4,9 C -3,1 C 0,0 km/h (0 Bft)
11.03.2014 03:15 -3,0 C 87 % 1021,9 hPa 0,0 l/m 0,0 km/h (0 Bft) NO 45 -4,9 C -3,3 C 0,0 km/h (0 Bft)
11.03.2014 03:20 -2,8 C 87 % 1021,9 hPa 0,0 l/m 0,0 km/h (0 Bft) NO 45 -4,7 C -3,2 C 0,0 km/h (0 Bft)
11.03.2014 03:25 -2,8 C 87 % 1021,9 hPa 0,0 l/m 0,0 km/h (0 Bft) NO 45 -4,7 C -3,2 C 0,0 km/h (0 Bft)
11.03.2014 03:30 -2,9 C 87 % 1021,9 hPa 0,0 l/m 0,0 km/h (0 Bft) N-NO 22 -4,8 C -3,0 C 0,0 km/h (0 Bft)
11.03.2014 03:35 -3,0 C 87 % 1021,9 hPa 0,0 l/m 0,0 km/h (0 Bft) N-NO 22 -4,9 C -3,1 C 0,0 km/h (0 Bft)
11.03.2014 03:40 -3,1 C 87 % 1021,9 hPa 0,0 l/m 0,0 km/h (0 Bft) N-NO 22 -4,9 C -3,2 C 0,0 km/h (0 Bft)
11.03.2014 03:45 -2,6 C 88 % 1021,9 hPa 0,0 l/m 0,5 km/h (0 Bft) O-NO 67 -4,3 C -3,2 C 1,8 km/h (1 Bft)
11.03.2014 03:50 -2,7 C 88 % 1021,8 hPa 0,0 l/m 0,5 km/h (0 Bft) N 360 -4,4 C -2,9 C 0,0 km/h (0 Bft)
11.03.2014 03:55 -2,6 C 88 % 1021,8 hPa 0,0 l/m 0,2 km/h (0 Bft) N-NO 22 -4,3 C -2,9 C 0,0 km/h (0 Bft)
11.03.2014 04:00 -2,8 C 88 % 1021,8 hPa 0,0 l/m 0,0 km/h (0 Bft) N 360 -4,5 C -2,9 C 0,0 km/h (0 Bft)
11.03.2014 04:05 -3,2 C 87 % 1021,8 hPa 0,0 l/m 0,0 km/h (0 Bft) N 360 -5,0 C -3,1 C 0,0 km/h (0 Bft)
11.03.2014 04:10 -2,7 C 88 % 1021,9 hPa 0,0 l/m 0,5 km/h (0 Bft) NO 45 -4,4 C -3,2 C 4,2 km/h (1 Bft)
11.03.2014 04:15 -2,4 C 88 % 1021,9 hPa 0,0 l/m 1,3 km/h (1 Bft) N 360 -4,1 C -3,0 C 2,7 km/h (1 Bft)
11.03.2014 04:20 -2,4 C 89 % 1021,9 hPa 0,0 l/m 1,6 km/h (1 Bft) NO 45 -4,0 C -2,7 C 4,7 km/h (1 Bft)
11.03.2014 04:25 -2,8 C 89 % 1021,9 hPa 0,0 l/m 0,6 km/h (0 Bft) N-NO 22 -4,4 C -2,7 C 0,0 km/h (0 Bft)
11.03.2014 04:30 -3,1 C 88 % 1022,1 hPa 0,0 l/m 0,2 km/h (0 Bft) O 90 -4,8 C -3,0 C 1,9 km/h (1 Bft)
11.03.2014 04:35 -3,1 C 88 % 1022,1 hPa 0,0 l/m 0,2 km/h (0 Bft) N 360 -4,8 C -2,9 C 0,0 km/h (0 Bft)
11.03.2014 04:40 -3,1 C 88 % 1022,1 hPa 0,0 l/m 0,3 km/h (0 Bft) N-NW 337 -4,8 C -3,1 C 0,0 km/h (0 Bft)
11.03.2014 04:45 -3,1 C 88 % 1022,1 hPa 0,0 l/m 0,3 km/h (0 Bft) O-SO 112 -4,8 C -3,1 C 3,4 km/h (1 Bft)
11.03.2014 04:50 -3,0 C 88 % 1022,1 hPa 0,0 l/m 1,0 km/h (0 Bft) O-NO 67 -4,7 C -3,1 C 4,8 km/h (1 Bft)
11.03.2014 04:55 -3,3 C 88 % 1022,1 hPa 0,0 l/m 1,0 km/h (0 Bft) O-NO 67 -5,0 C -3,2 C 0,0 km/h (0 Bft)
11.03.2014 05:00 -2,7 C 89 % 1022,1 hPa 0,0 l/m 0,5 km/h (0 Bft) O 90 -4,3 C -3,3 C 2,6 km/h (1 Bft)
11.03.2014 05:05 -2,1 C 89 % 1022,1 hPa 0,0 l/m 1,0 km/h (0 Bft) N-NO 22 -3,7 C -3,1 C 0,0 km/h (0 Bft)
11.03.2014 05:10 -2,4 C 89 % 1022,4 hPa 0,0 l/m 1,0 km/h (0 Bft) W-NW 292 -4,0 C -3,1 C 0,0 km/h (0 Bft)
11.03.2014 05:15 -3,3 C 89 % 1022,4 hPa 0,0 l/m 0,3 km/h (0 Bft) NW 315 -4,8 C -3,2 C 0,0 km/h (0 Bft)
11.03.2014 05:20 -3,6 C 89 % 1022,4 hPa 0,0 l/m 0,2 km/h (0 Bft) N-NO 22 -5,1 C -3,5 C 1,6 km/h (1 Bft)
11.03.2014 05:25 -3,6 C 88 % 1022,4 hPa 0,0 l/m 0,2 km/h (0 Bft) N-NW 337 -5,3 C -3,6 C 0,0 km/h (0 Bft)
11.03.2014 05:30 -3,4 C 89 % 1022,5 hPa 0,0 l/m 0,2 km/h (0 Bft) N-NW 337 -4,9 C -3,8 C 0,0 km/h (0 Bft)
11.03.2014 05:35 -3,7 C 89 % 1022,5 hPa 0,0 l/m 0,0 km/h (0 Bft) N 360 -5,2 C -3,8 C 0,0 km/h (0 Bft)
11.03.2014 05:40 -3,4 C 89 % 1022,5 hPa 0,0 l/m 0,0 km/h (0 Bft) NW 315 -4,9 C -3,7 C 0,0 km/h (0 Bft)
11.03.2014 05:45 -3,5 C 89 % 1022,5 hPa 0,0 l/m 0,0 km/h (0 Bft) W-NW 292 -5,0 C -3,6 C 0,0 km/h (0 Bft)
11.03.2014 05:50 -3,8 C 89 % 1022,9 hPa 0,0 l/m 0,0 km/h (0 Bft) N 360 -5,3 C -3,8 C 0,0 km/h (0 Bft)
11.03.2014 05:55 -3,7 C 88 % 1022,9 hPa 0,0 l/m 0,0 km/h (0 Bft) W-NW 292 -5,4 C -3,8 C 0,0 km/h (0 Bft)
11.03.2014 06:00 -3,8 C 89 % 1022,9 hPa 0,0 l/m 0,0 km/h (0 Bft) W-NW 292 -5,3 C -3,7 C 0,0 km/h (0 Bft)
11.03.2014 06:05 -3,1 C 89 % 1022,9 hPa 0,0 l/m 0,0 km/h (0 Bft) W-NW 292 -4,6 C -3,7 C 0,0 km/h (0 Bft)
11.03.2014 06:10 -3,1 C 89 % 1022,9 hPa 0,0 l/m 0,2 km/h (0 Bft) O-NO 67 -4,6 C -3,5 C 5,1 km/h (1 Bft)
11.03.2014 06:15 -2,8 C 89 % 1022,9 hPa 0,0 l/m 0,3 km/h (0 Bft) S-SO 157 -4,4 C -3,3 C 0,0 km/h (0 Bft)
11.03.2014 06:20 -3,8 C 89 % 1022,9 hPa 0,0 l/m 0,3 km/h (0 Bft) SO 135 -5,3 C -3,7 C 0,0 km/h (0 Bft)
11.03.2014 06:25 -3,8 C 89 % 1022,9 hPa 0,0 l/m 0,0 km/h (0 Bft) SO 135 -5,3 C -3,8 C 0,0 km/h (0 Bft)
11.03.2014 06:30 -4,2 C 88 % 1023,0 hPa 0,0 l/m 0,0 km/h (0 Bft) S-SO 157 -5,9 C -4,0 C 0,0 km/h (0 Bft)
11.03.2014 06:35 -4,1 C 88 % 1023,0 hPa 0,0 l/m 0,0 km/h (0 Bft) S-SO 157 -5,8 C -4,0 C 0,0 km/h (0 Bft)
11.03.2014 06:40 -3,9 C 88 % 1023,0 hPa 0,0 l/m 0,0 km/h (0 Bft) S-SO 157 -5,6 C -4,0 C 0,0 km/h (0 Bft)
11.03.2014 06:45 -3,9 C 88 % 1023,0 hPa 0,0 l/m 0,0 km/h (0 Bft) S-SO 157 -5,6 C -4,0 C 0,0 km/h (0 Bft)
11.03.2014 06:50 -3,9 C 88 % 1023,2 hPa 0,0 l/m 0,0 km/h (0 Bft) S-SO 157 -5,6 C -4,0 C 0,0 km/h (0 Bft)
11.03.2014 06:55 -4,1 C 88 % 1023,2 hPa 0,0 l/m 0,0 km/h (0 Bft) S-SO 157 -5,8 C -4,0 C 0,0 km/h (0 Bft)
11.03.2014 07:00 -4,0 C 88 % 1023,2 hPa 0,0 l/m 0,0 km/h (0 Bft) S-SO 157 -5,7 C -4,0 C 0,0 km/h (0 Bft)
11.03.2014 07:05 -4,0 C 88 % 1023,2 hPa 0,0 l/m 0,0 km/h (0 Bft) S-SO 157 -5,7 C -4,0 C 0,0 km/h (0 Bft)
11.03.2014 07:10 -3,2 C 89 % 1023,6 hPa 0,0 l/m 0,0 km/h (0 Bft) S-SO 157 -4,7 C -4,0 C 0,0 km/h (0 Bft)
11.03.2014 07:15 -3,3 C 89 % 1023,6 hPa 0,0 l/m 0,0 km/h (0 Bft) S-SO 157 -4,8 C -4,0 C 0,0 km/h (0 Bft)
11.03.2014 07:20 -3,4 C 89 % 1023,6 hPa 0,0 l/m 0,0 km/h (0 Bft) S-SO 157 -4,9 C -4,0 C 0,0 km/h (0 Bft)
11.03.2014 07:25 -3,4 C 88 % 1023,6 hPa 0,0 l/m 0,0 km/h (0 Bft) S-SO 157 -5,1 C -4,0 C 0,0 km/h (0 Bft)
11.03.2014 07:30 -3,3 C 88 % 1023,6 hPa 0,0 l/m 0,0 km/h (0 Bft) S-SO 157 -5,0 C -4,0 C 0,0 km/h (0 Bft)
11.03.2014 07:35 -3,3 C 88 % 1023,6 hPa 0,0 l/m 0,0 km/h (0 Bft) S-SO 157 -5,0 C -4,0 C 0,0 km/h (0 Bft)
11.03.2014 07:40 -3,0 C 89 % 1023,6 hPa 0,0 l/m 0,0 km/h (0 Bft) S-SO 157 -4,6 C -4,0 C 0,0 km/h (0 Bft)
11.03.2014 07:45 -2,8 C 89 % 1023,6 hPa 0,0 l/m 0,0 km/h (0 Bft) S-SO 157 -4,4 C -4,0 C 0,0 km/h (0 Bft)
11.03.2014 07:50 -2,3 C 89 % 1023,8 hPa 0,0 l/m 0,0 km/h (0 Bft) S-SO 157 -3,9 C -4,0 C 0,0 km/h (0 Bft)
11.03.2014 07:55 -2,1 C 89 % 1023,8 hPa 0,0 l/m 0,0 km/h (0 Bft) S-SO 157 -3,7 C -4,0 C 0,0 km/h (0 Bft)
11.03.2014 08:00 -1,7 C 89 % 1023,8 hPa 0,0 l/m 0,0 km/h (0 Bft) S-SO 157 -3,3 C -4,0 C 0,0 km/h (0 Bft)
11.03.2014 08:05 -1,4 C 89 % 1023,8 hPa 0,0 l/m 0,0 km/h (0 Bft) S-SO 157 -3,0 C -4,0 C 0,0 km/h (0 Bft)
11.03.2014 08:10 -1,1 C 89 % 1023,9 hPa 0,0 l/m 0,0 km/h (0 Bft) S-SO 157 -2,7 C -4,0 C 0,0 km/h (0 Bft)
11.03.2014 08:15 -1,0 C 89 % 1023,9 hPa 0,0 l/m 0,0 km/h (0 Bft) S-SO 157 -2,6 C -4,0 C 0,0 km/h (0 Bft)
11.03.2014 08:20 -0,6 C 89 % 1023,9 hPa 0,0 l/m 0,0 km/h (0 Bft) S-SO 157 -2,2 C -4,0 C 0,0 km/h (0 Bft)
11.03.2014 08:25 -0,3 C 89 % 1023,9 hPa 0,0 l/m 0,0 km/h (0 Bft) S-SO 157 -1,9 C -4,0 C 0,0 km/h (0 Bft)
11.03.2014 08:30 0,0 C 89 % 1024,2 hPa 0,0 l/m 0,0 km/h (0 Bft) S-SO 157 -1,6 C -4,0 C 0,0 km/h (0 Bft)
11.03.2014 08:35 0,1 C 89 % 1024,2 hPa 0,0 l/m 0,0 km/h (0 Bft) S-SO 157 -1,5 C -4,0 C 0,0 km/h (0 Bft)
11.03.2014 08:40 0,4 C 89 % 1024,2 hPa 0,0 l/m 0,0 km/h (0 Bft) S-SO 157 -1,2 C -4,0 C 0,0 km/h (0 Bft)
11.03.2014 08:45 1,1 C 89 % 1024,2 hPa 0,0 l/m 0,0 km/h (0 Bft) S-SO 157 -0,5 C -4,0 C 0,0 km/h (0 Bft)
11.03.2014 08:50 1,4 C 90 % 1024,4 hPa 0,0 l/m 0,0 km/h (0 Bft) S-SO 157 -0,1 C -4,0 C 0,0 km/h (0 Bft)
11.03.2014 08:55 1,2 C 90 % 1024,4 hPa 0,0 l/m 0,0 km/h (0 Bft) S-SO 157 -0,3 C -4,0 C 0,0 km/h (0 Bft)
11.03.2014 09:00 1,9 C 91 % 1024,4 hPa 0,0 l/m 0,0 km/h (0 Bft) S-SO 157 0,6 C -4,0 C 0,0 km/h (0 Bft)
11.03.2014 09:05 2,0 C 90 % 1024,4 hPa 0,0 l/m 0,0 km/h (0 Bft) S-SO 157 0,5 C -4,0 C 0,0 km/h (0 Bft)
11.03.2014 09:10 2,6 C 89 % 1024,6 hPa 0,0 l/m 0,0 km/h (0 Bft) S-SO 157 1,0 C -4,0 C 0,0 km/h (0 Bft)
11.03.2014 09:15 3,2 C 88 % 1024,6 hPa 0,0 l/m 0,0 km/h (0 Bft) S-SO 157 1,4 C -4,0 C 0,0 km/h (0 Bft)
11.03.2014 09:20 3,7 C 83 % 1024,6 hPa 0,0 l/m 0,0 km/h (0 Bft) S-SO 157 1,1 C -4,0 C 0,0 km/h (0 Bft)
11.03.2014 09:25 4,1 C 79 % 1024,6 hPa 0,0 l/m 0,0 km/h (0 Bft) S-SO 157 0,8 C -4,0 C 0,0 km/h (0 Bft)
11.03.2014 09:30 4,9 C 78 % 1024,9 hPa 0,0 l/m 0,0 km/h (0 Bft) S-SO 157 1,4 C -4,0 C 0,0 km/h (0 Bft)
11.03.2014 09:35 4,8 C 77 % 1024,9 hPa 0,0 l/m 0,0 km/h (0 Bft) S-SO 157 1,1 C -4,0 C 0,0 km/h (0 Bft)
11.03.2014 09:40 4,4 C 75 % 1024,9 hPa 0,0 l/m 0,0 km/h (0 Bft) S-SO 157 0,4 C -4,0 C 0,0 km/h (0 Bft)
11.03.2014 09:45 4,2 C 76 % 1024,9 hPa 0,0 l/m 0,0 km/h (0 Bft) S-SO 157 0,4 C -4,0 C 0,0 km/h (0 Bft)
11.03.2014 09:50 4,6 C 74 % 1024,9 hPa 0,0 l/m 0,0 km/h (0 Bft) S-SO 157 0,4 C -4,0 C 0,0 km/h (0 Bft)
11.03.2014 09:55 5,1 C 73 % 1024,9 hPa 0,0 l/m 0,0 km/h (0 Bft) S-SO 157 0,7 C -4,0 C 0,0 km/h (0 Bft)
11.03.2014 10:00 4,6 C 72 % 1024,9 hPa 0,0 l/m 0,0 km/h (0 Bft) S-SO 157 -0,0 C -4,0 C 0,0 km/h (0 Bft)
11.03.2014 10:05 4,5 C 74 % 1024,9 hPa 0,0 l/m 0,0 km/h (0 Bft) S-SO 157 0,3 C -4,0 C 0,0 km/h (0 Bft)
11.03.2014 10:10 4,8 C 76 % 1025,1 hPa 0,0 l/m 0,0 km/h (0 Bft) S-SO 157 0,9 C -4,0 C 0,0 km/h (0 Bft)
11.03.2014 10:15 4,7 C 72 % 1025,1 hPa 0,0 l/m 0,0 km/h (0 Bft) S-SO 157 0,1 C -4,0 C 0,0 km/h (0 Bft)
11.03.2014 10:20 5,2 C 73 % 1025,1 hPa 0,0 l/m 0,0 km/h (0 Bft) S-SO 157 0,8 C -4,0 C 0,0 km/h (0 Bft)
11.03.2014 10:25 6,1 C 70 % 1025,1 hPa 0,0 l/m 0,0 km/h (0 Bft) S-SO 157 1,0 C -4,0 C 0,0 km/h (0 Bft)
11.03.2014 10:30 5,9 C 67 % 1025,3 hPa 0,0 l/m 0,0 km/h (0 Bft) S-SO 157 0,3 C -4,0 C 0,0 km/h (0 Bft)
11.03.2014 10:35 5,7 C 66 % 1025,3 hPa 0,0 l/m 0,0 km/h (0 Bft) S-SO 157 -0,1 C -4,0 C 0,0 km/h (0 Bft)
11.03.2014 10:40 6,7 C 68 % 1025,3 hPa 0,0 l/m 0,0 km/h (0 Bft) S-SO 157 1,2 C -4,0 C 0,0 km/h (0 Bft)
11.03.2014 10:45 6,5 C 60 % 1025,3 hPa 0,0 l/m 0,0 km/h (0 Bft) S-SO 157 -0,7 C -4,0 C 0,0 km/h (0 Bft)
11.03.2014 10:50 7,3 C 64 % 1025,2 hPa 0,0 l/m 0,0 km/h (0 Bft) S-SO 157 1,0 C -4,0 C 0,0 km/h (0 Bft)
11.03.2014 10:55 7,2 C 61 % 1025,2 hPa 0,0 l/m 0,0 km/h (0 Bft) S-SO 157 0,2 C -4,0 C 0,0 km/h (0 Bft)
11.03.2014 11:00 7,5 C 59 % 1025,2 hPa 0,0 l/m 0,0 km/h (0 Bft) S-SO 157 0,0 C -4,0 C 0,0 km/h (0 Bft)
11.03.2014 11:05 7,8 C 60 % 1025,2 hPa 0,0 l/m 0,0 km/h (0 Bft) S-SO 157 0,5 C -4,0 C 0,0 km/h (0 Bft)
11.03.2014 11:10 8,2 C 59 % 1025,5 hPa 0,0 l/m 0,0 km/h (0 Bft) S-SO 157 0,7 C -4,0 C 0,0 km/h (0 Bft)
11.03.2014 11:15 8,3 C 58 % 1025,5 hPa 0,0 l/m 0,0 km/h (0 Bft) S-SO 157 0,5 C -4,0 C 0,0 km/h (0 Bft)
11.03.2014 11:20 8,3 C 57 % 1025,5 hPa 0,0 l/m 0,0 km/h (0 Bft) S-SO 157 0,3 C -4,0 C 0,0 km/h (0 Bft)
11.03.2014 11:25 8,2 C 55 % 1025,5 hPa 0,0 l/m 0,0 km/h (0 Bft) S-SO 157 -0,3 C -4,0 C 0,0 km/h (0 Bft)
11.03.2014 11:30 8,1 C 56 % 1025,6 hPa 0,0 l/m 0,0 km/h (0 Bft) S-SO 157 -0,1 C -4,0 C 0,0 km/h (0 Bft)
11.03.2014 11:35 8,4 C 53 % 1025,6 hPa 0,0 l/m 0,0 km/h (0 Bft) S-SO 157 -0,6 C -4,0 C 0,0 km/h (0 Bft)
11.03.2014 11:40 8,9 C 51 % 1025,6 hPa 0,0 l/m 0,0 km/h (0 Bft) S-SO 157 -0,7 C -4,0 C 0,0 km/h (0 Bft)
11.03.2014 11:45 8,3 C 52 % 1025,6 hPa 0,0 l/m 0,0 km/h (0 Bft) S-SO 157 -1,0 C -4,0 C 0,0 km/h (0 Bft)
11.03.2014 11:50 7,9 C 53 % 1025,7 hPa 0,0 l/m 0,0 km/h (0 Bft) S-SO 157 -1,1 C -4,0 C 0,0 km/h (0 Bft)
11.03.2014 11:55 7,8 C 55 % 1025,7 hPa 0,0 l/m 0,0 km/h (0 Bft) S-SO 157 -0,7 C -4,0 C 0,0 km/h (0 Bft)
11.03.2014 12:00 8,7 C 53 % 1025,7 hPa 0,0 l/m 0,0 km/h (0 Bft) S-SO 157 -0,3 C -4,0 C 0,0 km/h (0 Bft)
11.03.2014 12:05 8,7 C 54 % 1025,7 hPa 0,0 l/m 0,0 km/h (0 Bft) S-SO 157 -0,1 C -4,0 C 0,0 km/h (0 Bft)
11.03.2014 12:08 8,6 C 55 % 1025,6 hPa 0,0 l/m 0,0 km/h (0 Bft) S-SO 157 0,1 C -4,0 C 0,0 km/h (0 Bft)
11.03.2014 12:10 8,6 C 55 % 1025,6 hPa 0,0 l/m 0,0 km/h (0 Bft) S-SO 157 0,1 C -4,0 C 0,0 km/h (0 Bft)
11.03.2014 12:15 9,0 C 54 % 1025,6 hPa 0,0 l/m 0,0 km/h (0 Bft) S-SO 157 0,2 C -4,0 C 0,0 km/h (0 Bft)
11.03.2014 12:20 8,8 C 53 % 1025,6 hPa 0,0 l/m 0,0 km/h (0 Bft) S-SO 157 -0,2 C -4,0 C 0,0 km/h (0 Bft)
11.03.2014 12:25 9,6 C 53 % 1025,6 hPa 0,0 l/m 0,0 km/h (0 Bft) S-SO 157 0,5 C -4,0 C 0,0 km/h (0 Bft)
11.03.2014 12:30 9,7 C 52 % 1025,6 hPa 0,0 l/m 0,0 km/h (0 Bft) S-SO 157 0,3 C -4,0 C 0,0 km/h (0 Bft)
11.03.2014 12:35 10,0 C 51 % 1025,6 hPa 0,0 l/m 0,0 km/h (0 Bft) S-SO 157 0,3 C -4,0 C 0,0 km/h (0 Bft)
11.03.2014 12:40 9,7 C 51 % 1025,6 hPa 0,0 l/m 0,0 km/h (0 Bft) S-SO 157 0,1 C -4,0 C 0,0 km/h (0 Bft)
11.03.2014 12:45 9,7 C 51 % 1025,6 hPa 0,0 l/m 0,0 km/h (0 Bft) S-SO 157 0,1 C -4,0 C 0,0 km/h (0 Bft)
11.03.2014 12:50 10,0 C 51 % 1025,5 hPa 0,0 l/m 0,0 km/h (0 Bft) S-SO 157 0,3 C -4,0 C 0,0 km/h (0 Bft)
11.03.2014 12:55 10,2 C 51 % 1025,5 hPa 0,0 l/m 0,0 km/h (0 Bft) S-SO 157 0,5 C -4,0 C 0,0 km/h (0 Bft)
11.03.2014 13:00 10,5 C 49 % 1025,5 hPa 0,0 l/m 0,0 km/h (0 Bft) S-SO 157 0,2 C -4,0 C 0,0 km/h (0 Bft)
11.03.2014 13:05 10,6 C 49 % 1025,5 hPa 0,0 l/m 0,0 km/h (0 Bft) S-SO 157 0,3 C -4,0 C 0,0 km/h (0 Bft)
11.03.2014 13:10 10,4 C 49 % 1025,5 hPa 0,0 l/m 0,0 km/h (0 Bft) S-SO 157 0,2 C -4,0 C 0,0 km/h (0 Bft)
11.03.2014 13:15 10,6 C 48 % 1025,5 hPa 0,0 l/m 0,0 km/h (0 Bft) S-SO 157 0,1 C -4,0 C 0,0 km/h (0 Bft)
11.03.2014 13:20 10,6 C 47 % 1025,5 hPa 0,0 l/m 0,0 km/h (0 Bft) S-SO 157 -0,2 C -4,0 C 0,0 km/h (0 Bft)
11.03.2014 13:25 10,6 C 49 % 1025,5 hPa 0,0 l/m 0,0 km/h (0 Bft) S-SO 157 0,3 C -4,0 C 0,0 km/h (0 Bft)
11.03.2014 13:30 10,7 C 49 % 1025,7 hPa 0,0 l/m 0,0 km/h (0 Bft) S-SO 157 0,4 C -4,0 C 0,0 km/h (0 Bft)
11.03.2014 13:35 11,1 C 48 % 1025,7 hPa 0,0 l/m 0,0 km/h (0 Bft) S-SO 157 0,5 C -4,0 C 0,0 km/h (0 Bft)
11.03.2014 13:40 11,4 C 47 % 1025,7 hPa 0,0 l/m 0,0 km/h (0 Bft) S-SO 157 0,5 C -4,0 C 0,0 km/h (0 Bft)
11.03.2014 13:45 11,3 C 46 % 1025,7 hPa 0,0 l/m 0,0 km/h (0 Bft) S-SO 157 0,1 C -4,0 C 0,0 km/h (0 Bft)
11.03.2014 13:50 11,4 C 45 % 1025,3 hPa 0,0 l/m 0,0 km/h (0 Bft) S-SO 157 -0,1 C -4,0 C 0,0 km/h (0 Bft)
11.03.2014 13:55 11,5 C 44 % 1025,3 hPa 0,0 l/m 0,0 km/h (0 Bft) S-SO 157 -0,3 C -4,0 C 0,0 km/h (0 Bft)
11.03.2014 14:00 12,0 C 43 % 1025,3 hPa 0,0 l/m 0,0 km/h (0 Bft) S-SO 157 -0,2 C -4,0 C 0,0 km/h (0 Bft)
11.03.2014 14:05 11,8 C 43 % 1025,3 hPa 0,0 l/m 0,0 km/h (0 Bft) S-SO 157 -0,4 C -4,0 C 0,0 km/h (0 Bft)
11.03.2014 14:10 12,0 C 42 % 1025,4 hPa 0,0 l/m 0,0 km/h (0 Bft) S-SO 157 -0,5 C -4,0 C 0,0 km/h (0 Bft)
11.03.2014 14:15 12,3 C 42 % 1025,4 hPa 0,0 l/m 0,0 km/h (0 Bft) S-SO 157 -0,2 C -4,0 C 0,0 km/h (0 Bft)
11.03.2014 14:20 11,9 C 42 % 1025,4 hPa 0,0 l/m 0,0 km/h (0 Bft) S-SO 157 -0,6 C -4,0 C 0,0 km/h (0 Bft)
11.03.2014 14:25 12,0 C 41 % 1025,4 hPa 0,0 l/m 0,0 km/h (0 Bft) S-SO 157 -0,8 C -4,0 C 0,0 km/h (0 Bft)
11.03.2014 14:30 12,4 C 41 % 1025,7 hPa 0,0 l/m 0,0 km/h (0 Bft) S-SO 157 -0,5 C -4,0 C 0,0 km/h (0 Bft)
11.03.2014 14:35 12,3 C 41 % 1025,7 hPa 0,0 l/m 0,0 km/h (0 Bft) S-SO 157 -0,6 C -4,0 C 0,0 km/h (0 Bft)
11.03.2014 14:40 12,6 C 41 % 1025,7 hPa 0,0 l/m 0,0 km/h (0 Bft) S-SO 157 -0,3 C -4,0 C 0,0 km/h (0 Bft)
11.03.2014 14:45 12,3 C 41 % 1025,7 hPa 0,0 l/m 0,0 km/h (0 Bft) S-SO 157 -0,6 C -4,0 C 0,0 km/h (0 Bft)
11.03.2014 14:50 12,6 C 41 % 1025,7 hPa 0,0 l/m 0,0 km/h (0 Bft) S-SO 157 -0,3 C -4,0 C 0,0 km/h (0 Bft)
11.03.2014 14:55 12,5 C 41 % 1025,7 hPa 0,0 l/m 0,0 km/h (0 Bft) S-SO 157 -0,4 C -4,0 C 0,0 km/h (0 Bft)
11.03.2014 15:00 12,1 C 40 % 1025,7 hPa 0,0 l/m 0,0 km/h (0 Bft) S-SO 157 -1,1 C -4,0 C 0,0 km/h (0 Bft)
11.03.2014 15:05 12,1 C 39 % 1025,7 hPa 0,0 l/m 0,0 km/h (0 Bft) S-SO 157 -1,4 C -4,0 C 0,0 km/h (0 Bft)
11.03.2014 15:10 11,6 C 39 % 1025,6 hPa 0,0 l/m 0,0 km/h (0 Bft) S-SO 157 -1,9 C -4,0 C 0,0 km/h (0 Bft)
11.03.2014 15:15 11,4 C 40 % 1025,6 hPa 0,0 l/m 0,0 km/h (0 Bft) S-SO 157 -1,7 C -4,0 C 0,0 km/h (0 Bft)
11.03.2014 15:20 11,2 C 41 % 1025,6 hPa 0,0 l/m 7,4 km/h (2 Bft) N-NO 22 -1,6 C 12,1 C 8,0 km/h (2 Bft)
11.03.2014 15:25 11,1 C 41 % 1025,6 hPa 0,0 l/m 7,4 km/h (2 Bft) NO 45 -1,6 C 12,0 C 12,1 km/h (2 Bft)
11.03.2014 15:30 10,9 C 42 % 1025,4 hPa 0,0 l/m 7,1 km/h (2 Bft) N 360 -1,5 C 11,7 C 7,9 km/h (2 Bft)
11.03.2014 15:35 10,9 C 43 % 1025,4 hPa 0,0 l/m 7,6 km/h (2 Bft) N 360 -1,2 C 11,2 C 9,3 km/h (2 Bft)
11.03.2014 15:40 10,9 C 42 % 1025,4 hPa 0,0 l/m 7,7 km/h (2 Bft) N 360 -1,5 C 11,2 C 13,8 km/h (3 Bft)
11.03.2014 15:45 11,0 C 43 % 1025,4 hPa 0,0 l/m 8,0 km/h (2 Bft) N 360 -1,1 C 11,2 C 8,7 km/h (2 Bft)
11.03.2014 15:48 10,9 C 44 % 1025,2 hPa 0,0 l/m 8,4 km/h (2 Bft) N-NO 22 -0,9 C 11,0 C 7,6 km/h (2 Bft)
11.03.2014 15:50 10,9 C 44 % 1025,2 hPa 0,0 l/m 8,4 km/h (2 Bft) N-NO 22 -0,9 C 11,0 C 7,6 km/h (2 Bft)
11.03.2014 15:54 10,5 C 44 % 1025,2 hPa 0,0 l/m 8,4 km/h (2 Bft) NO 45 -1,2 C 10,9 C 9,2 km/h (2 Bft)
11.03.2014 15:55 10,5 C 44 % 1025,2 hPa 0,0 l/m 8,4 km/h (2 Bft) NO 45 -1,2 C 10,9 C 9,2 km/h (2 Bft)
11.03.2014 16:00 10,5 C 44 % 1025,2 hPa 0,0 l/m 8,4 km/h (2 Bft) N 360 -1,2 C 10,7 C 16,6 km/h (3 Bft)
11.03.2014 16:05 10,3 C 44 % 1025,2 hPa 0,0 l/m 7,9 km/h (2 Bft) W-NW 292 -1,4 C 11,4 C 7,4 km/h (2 Bft)
11.03.2014 16:10 10,2 C 45 % 1025,5 hPa 0,0 l/m 7,6 km/h (2 Bft) N-NW 337 -1,2 C 12,5 C 12,2 km/h (2 Bft)
11.03.2014 16:15 10,1 C 45 % 1025,5 hPa 0,0 l/m 7,4 km/h (2 Bft) W-NW 292 -1,3 C 12,5 C 6,8 km/h (2 Bft)
11.03.2014 16:20 10,1 C 46 % 1025,5 hPa 0,0 l/m 7,1 km/h (2 Bft) W 270 -1,0 C 12,6 C 6,6 km/h (2 Bft)
11.03.2014 16:25 10,0 C 46 % 1025,5 hPa 0,0 l/m 6,9 km/h (2 Bft) N 360 -1,1 C 12,5 C 6,4 km/h (2 Bft)
11.03.2014 16:30 9,8 C 48 % 1025,6 hPa 0,0 l/m 6,6 km/h (2 Bft) N-NW 337 -0,7 C 12,6 C 8,2 km/h (2 Bft)
11.03.2014 16:35 9,7 C 46 % 1025,6 hPa 0,0 l/m 6,1 km/h (2 Bft) O 90 -1,3 C 12,6 C 13,4 km/h (3 Bft)
11.03.2014 16:40 9,4 C 47 % 1025,6 hPa 0,0 l/m 6,8 km/h (2 Bft) N 360 -1,3 C 11,6 C 12,1 km/h (2 Bft)
11.03.2014 16:45 9,3 C 47 % 1025,6 hPa 0,0 l/m 7,1 km/h (2 Bft) N-NW 337 -1,4 C 11,2 C 9,7 km/h (2 Bft)
11.03.2014 16:50 9,1 C 48 % 1025,6 hPa 0,0 l/m 6,4 km/h (2 Bft) N-NO 22 -1,3 C 11,5 C 4,8 km/h (1 Bft)
11.03.2014 16:55 9,0 C 47 % 1025,6 hPa 0,0 l/m 6,6 km/h (2 Bft) N-NW 337 -1,7 C 11,2 C 11,9 km/h (2 Bft)
11.03.2014 17:00 9,0 C 45 % 1025,6 hPa 0,0 l/m 7,6 km/h (2 Bft) W-NW 292 -2,3 C 10,4 C 6,8 km/h (2 Bft)
11.03.2014 17:05 8,7 C 44 % 1025,6 hPa 0,0 l/m 7,9 km/h (2 Bft) N 360 -2,9 C 10,2 C 12,2 km/h (2 Bft)
11.03.2014 17:10 8,4 C 43 % 1025,8 hPa 0,0 l/m 8,2 km/h (2 Bft) N-NO 22 -3,4 C 9,6 C 10,3 km/h (2 Bft)
11.03.2014 17:15 8,2 C 43 % 1025,8 hPa 0,0 l/m 8,4 km/h (2 Bft) N-NW 337 -3,6 C 9,0 C 7,2 km/h (2 Bft)
11.03.2014 17:20 7,8 C 44 % 1025,8 hPa 0,0 l/m 6,9 km/h (2 Bft) N-NO 22 -3,7 C 10,4 C 16,7 km/h (3 Bft)
11.03.2014 17:25 7,9 C 44 % 1025,8 hPa 0,0 l/m 6,4 km/h (2 Bft) NO 45 -3,6 C 11,1 C 6,9 km/h (2 Bft)
11.03.2014 17:30 7,6 C 44 % 1025,8 hPa 0,0 l/m 6,3 km/h (2 Bft) N-NW 337 -3,9 C 11,1 C 7,1 km/h (2 Bft)
11.03.2014 17:35 7,2 C 45 % 1025,8 hPa 0,0 l/m 5,1 km/h (1 Bft) W-NW 292 -3,9 C 11,4 C 5,5 km/h (1 Bft)
11.03.2014 17:40 6,9 C 45 % 1025,8 hPa 0,0 l/m 4,2 km/h (1 Bft) O 90 -4,2 C 11,1 C 2,7 km/h (1 Bft)
11.03.2014 17:45 7,0 C 45 % 1025,8 hPa 0,0 l/m 3,2 km/h (1 Bft) NO 45 -4,1 C 10,5 C 3,4 km/h (1 Bft)
11.03.2014 17:50 6,5 C 46 % 1025,9 hPa 0,0 l/m 2,9 km/h (1 Bft) N-NO 22 -4,3 C 9,2 C 1,8 km/h (1 Bft)
11.03.2014 17:55 6,1 C 48 % 1025,9 hPa 0,0 l/m 3,7 km/h (1 Bft) W-SW 247 -4,1 C 8,3 C 8,0 km/h (2 Bft)
11.03.2014 18:00 6,0 C 49 % 1025,9 hPa 0,0 l/m 4,3 km/h (1 Bft) W 270 -3,9 C 7,3 C 3,7 km/h (1 Bft)
11.03.2014 18:05 5,7 C 50 % 1025,9 hPa 0,0 l/m 4,3 km/h (1 Bft) NO 45 -3,9 C 6,9 C 2,9 km/h (1 Bft)
11.03.2014 18:10 5,5 C 51 % 1026,1 hPa 0,0 l/m 3,2 km/h (1 Bft) N-NO 22 -3,8 C 6,7 C 3,5 km/h (1 Bft)
11.03.2014 18:15 5,4 C 51 % 1026,1 hPa 0,0 l/m 2,9 km/h (1 Bft) N 360 -3,9 C 6,4 C 3,9 km/h (1 Bft)
11.03.2014 18:20 5,2 C 52 % 1026,1 hPa 0,0 l/m 3,1 km/h (1 Bft) NO 45 -3,8 C 5,9 C 4,0 km/h (1 Bft)
11.03.2014 18:25 5,3 C 53 % 1026,1 hPa 0,0 l/m 3,2 km/h (1 Bft) O-NO 67 -3,5 C 5,6 C 4,3 km/h (1 Bft)
11.03.2014 18:30 5,1 C 53 % 1026,4 hPa 0,0 l/m 3,5 km/h (1 Bft) NO 45 -3,7 C 4,7 C 6,0 km/h (2 Bft)
11.03.2014 18:35 5,0 C 53 % 1026,4 hPa 0,0 l/m 4,0 km/h (1 Bft) O-NO 67 -3,8 C 4,2 C 4,3 km/h (1 Bft)
11.03.2014 18:40 5,1 C 53 % 1026,4 hPa 0,0 l/m 4,3 km/h (1 Bft) O 90 -3,7 C 3,6 C 3,9 km/h (1 Bft)
11.03.2014 18:45 5,0 C 53 % 1026,4 hPa 0,0 l/m 4,2 km/h (1 Bft) O-NO 67 -3,8 C 3,6 C 5,3 km/h (1 Bft)
11.03.2014 18:50 4,6 C 54 % 1026,5 hPa 0,0 l/m 4,0 km/h (1 Bft) O-NO 67 -3,9 C 3,5 C 4,7 km/h (1 Bft)
11.03.2014 18:55 4,6 C 55 % 1026,5 hPa 0,0 l/m 3,7 km/h (1 Bft) NO 45 -3,6 C 3,3 C 3,2 km/h (1 Bft)
11.03.2014 19:00 4,3 C 55 % 1026,5 hPa 0,0 l/m 3,1 km/h (1 Bft) O 90 -3,9 C 3,3 C 2,7 km/h (1 Bft)
11.03.2014 19:05 4,2 C 55 % 1026,5 hPa 0,0 l/m 2,7 km/h (1 Bft) O-NO 67 -4,0 C 3,3 C 2,6 km/h (1 Bft)
11.03.2014 19:10 2,7 C 57 % 1026,4 hPa 0,0 l/m 1,1 km/h (1 Bft) O-SO 112 -4,9 C 2,6 C 0,0 km/h (0 Bft)
11.03.2014 19:15 2,7 C 58 % 1026,4 hPa 0,0 l/m 0,2 km/h (0 Bft) O-SO 112 -4,7 C 2,1 C 0,0 km/h (0 Bft)
11.03.2014 19:20 3,4 C 58 % 1026,4 hPa 0,0 l/m 0,2 km/h (0 Bft) O 90 -4,1 C 1,7 C 0,0 km/h (0 Bft)
11.03.2014 19:25 2,7 C 58 % 1026,4 hPa 0,0 l/m 0,2 km/h (0 Bft) NO 45 -4,7 C 1,4 C 0,0 km/h (0 Bft)
11.03.2014 19:30 1,6 C 59 % 1026,5 hPa 0,0 l/m 0,0 km/h (0 Bft) NO 45 -5,5 C 1,1 C 0,0 km/h (0 Bft)
11.03.2014 19:35 1,2 C 59 % 1026,5 hPa 0,0 l/m 0,0 km/h (0 Bft) NO 45 -5,9 C 0,9 C 0,0 km/h (0 Bft)
11.03.2014 19:40 1,0 C 60 % 1026,5 hPa 0,0 l/m 0,0 km/h (0 Bft) NO 45 -5,9 C 0,7 C 0,0 km/h (0 Bft)
11.03.2014 19:45 1,0 C 62 % 1026,5 hPa 0,0 l/m 0,0 km/h (0 Bft) O 90 -5,4 C 0,5 C 0,0 km/h (0 Bft)
11.03.2014 19:50 1,5 C 65 % 1026,5 hPa 0,0 l/m 0,0 km/h (0 Bft) O 90 -4,3 C 0,5 C 0,0 km/h (0 Bft)
11.03.2014 19:55 0,9 C 64 % 1026,5 hPa 0,0 l/m 0,0 km/h (0 Bft) NO 45 -5,1 C 0,4 C 0,0 km/h (0 Bft)
11.03.2014 20:00 0,5 C 64 % 1026,5 hPa 0,0 l/m 0,0 km/h (0 Bft) NO 45 -5,5 C 0,2 C 0,0 km/h (0 Bft)
11.03.2014 20:05 0,2 C 65 % 1026,5 hPa 0,0 l/m 0,0 km/h (0 Bft) O 90 -5,6 C 0,0 C 0,0 km/h (0 Bft)
11.03.2014 20:10 0,1 C 65 % 1026,7 hPa 0,0 l/m 0,0 km/h (0 Bft) NO 45 -5,7 C -0,1 C 0,0 km/h (0 Bft)
11.03.2014 20:15 0,1 C 66 % 1026,7 hPa 0,0 l/m 0,0 km/h (0 Bft) NO 45 -5,5 C -0,1 C 0,0 km/h (0 Bft)
11.03.2014 20:20 0,7 C 67 % 1026,7 hPa 0,0 l/m 0,6 km/h (0 Bft) N 360 -4,7 C 0,0 C 0,0 km/h (0 Bft)
11.03.2014 20:25 0,1 C 66 % 1026,7 hPa 0,0 l/m 0,6 km/h (0 Bft) N 360 -5,5 C -0,2 C 0,0 km/h (0 Bft)
11.03.2014 20:30 0,0 C 67 % 1026,7 hPa 0,0 l/m 0,3 km/h (0 Bft) NO 45 -5,4 C -0,4 C 2,6 km/h (1 Bft)
11.03.2014 20:35 0,2 C 68 % 1026,7 hPa 0,0 l/m 0,3 km/h (0 Bft) NO 45 -5,0 C -0,5 C 0,0 km/h (0 Bft)
11.03.2014 20:40 -0,6 C 68 % 1026,7 hPa 0,0 l/m 0,2 km/h (0 Bft) NO 45 -5,8 C -0,7 C 0,0 km/h (0 Bft)
11.03.2014 20:45 -0,9 C 68 % 1026,7 hPa 0,0 l/m 0,0 km/h (0 Bft) NO 45 -6,0 C -0,9 C 0,0 km/h (0 Bft)
11.03.2014 20:50 -1,1 C 69 % 1026,8 hPa 0,0 l/m 0,0 km/h (0 Bft) NO 45 -6,0 C -1,4 C 0,0 km/h (0 Bft)
11.03.2014 20:55 -1,2 C 69 % 1026,8 hPa 0,0 l/m 0,0 km/h (0 Bft) NO 45 -6,1 C -1,5 C 0,0 km/h (0 Bft)
11.03.2014 21:00 -1,3 C 69 % 1026,8 hPa 0,0 l/m 0,0 km/h (0 Bft) NO 45 -6,2 C -1,4 C 0,0 km/h (0 Bft)
11.03.2014 21:05 -1,6 C 69 % 1026,8 hPa 0,0 l/m 0,0 km/h (0 Bft) NO 45 -6,5 C -1,5 C 0,0 km/h (0 Bft)
11.03.2014 21:10 -1,8 C 70 % 1026,9 hPa 0,0 l/m 0,0 km/h (0 Bft) NO 45 -6,5 C -1,7 C 0,0 km/h (0 Bft)
11.03.2014 21:15 -1,8 C 71 % 1026,9 hPa 0,0 l/m 0,0 km/h (0 Bft) NO 45 -6,3 C -1,9 C 0,0 km/h (0 Bft)
11.03.2014 21:20 -1,7 C 71 % 1026,9 hPa 0,0 l/m 0,0 km/h (0 Bft) NO 45 -6,2 C -2,1 C 0,0 km/h (0 Bft)
11.03.2014 21:25 -1,7 C 72 % 1026,9 hPa 0,0 l/m 0,0 km/h (0 Bft) NO 45 -6,1 C -2,0 C 0,0 km/h (0 Bft)
11.03.2014 21:30 -1,9 C 72 % 1026,8 hPa 0,0 l/m 0,0 km/h (0 Bft) NO 45 -6,3 C -2,1 C 0,0 km/h (0 Bft)
11.03.2014 21:35 -1,9 C 73 % 1026,8 hPa 0,0 l/m 0,0 km/h (0 Bft) NO 45 -6,1 C -2,2 C 0,0 km/h (0 Bft)
11.03.2014 21:40 -1,8 C 73 % 1026,8 hPa 0,0 l/m 0,0 km/h (0 Bft) NO 45 -6,0 C -2,4 C 0,0 km/h (0 Bft)
11.03.2014 21:45 -1,9 C 74 % 1026,8 hPa 0,0 l/m 0,0 km/h (0 Bft) NO 45 -5,9 C -2,3 C 0,0 km/h (0 Bft)
11.03.2014 21:48 -1,8 C 74 % 1026,6 hPa 0,0 l/m 0,0 km/h (0 Bft) NO 45 -5,8 C -2,3 C 0,0 km/h (0 Bft)
11.03.2014 21:50 -1,8 C 74 % 1026,6 hPa 0,0 l/m 0,0 km/h (0 Bft) NO 45 -5,8 C -2,3 C 0,0 km/h (0 Bft)
11.03.2014 21:55 -2,0 C 74 % 1026,6 hPa 0,0 l/m 0,0 km/h (0 Bft) NO 45 -6,0 C -2,4 C 0,0 km/h (0 Bft)
11.03.2014 22:00 -2,0 C 75 % 1026,6 hPa 0,0 l/m 0,0 km/h (0 Bft) NO 45 -5,8 C -2,4 C 0,0 km/h (0 Bft)
11.03.2014 22:05 -2,2 C 75 % 1026,6 hPa 0,0 l/m 0,0 km/h (0 Bft) NO 45 -6,0 C -2,5 C 0,0 km/h (0 Bft)
11.03.2014 22:10 -2,1 C 75 % 1026,6 hPa 0,0 l/m 0,0 km/h (0 Bft) O-NO 67 -5,9 C -2,6 C 0,0 km/h (0 Bft)
11.03.2014 22:15 -2,0 C 76 % 1026,6 hPa 0,0 l/m 0,0 km/h (0 Bft) O-NO 67 -5,6 C -2,6 C 0,0 km/h (0 Bft)
11.03.2014 22:20 -2,2 C 76 % 1026,6 hPa 0,0 l/m 0,0 km/h (0 Bft) NO 45 -5,8 C -2,5 C 0,0 km/h (0 Bft)
11.03.2014 22:25 -2,2 C 76 % 1026,6 hPa 0,0 l/m 0,2 km/h (0 Bft) W-SW 247 -5,8 C -2,4 C 2,4 km/h (1 Bft)
11.03.2014 22:30 -2,1 C 77 % 1026,7 hPa 0,0 l/m 0,3 km/h (0 Bft) O-SO 112 -5,6 C -2,4 C 0,0 km/h (0 Bft)
11.03.2014 22:35 -2,3 C 76 % 1026,7 hPa 0,0 l/m 0,2 km/h (0 Bft) O-SO 112 -5,9 C -2,5 C 0,0 km/h (0 Bft)
11.03.2014 22:40 -2,4 C 76 % 1026,7 hPa 0,0 l/m 0,0 km/h (0 Bft) O-SO 112 -6,0 C -2,6 C 0,0 km/h (0 Bft)
11.03.2014 22:45 -2,6 C 76 % 1026,7 hPa 0,0 l/m 0,0 km/h (0 Bft) O-SO 112 -6,2 C -2,6 C 0,0 km/h (0 Bft)
11.03.2014 22:50 -2,7 C 76 % 1026,6 hPa 0,0 l/m 0,0 km/h (0 Bft) O-SO 112 -6,3 C -2,6 C 0,0 km/h (0 Bft)
11.03.2014 22:55 -2,7 C 77 % 1026,6 hPa 0,0 l/m 0,0 km/h (0 Bft) O-SO 112 -6,2 C -2,6 C 0,0 km/h (0 Bft)
11.03.2014 23:00 -2,8 C 77 % 1026,6 hPa 0,0 l/m 0,0 km/h (0 Bft) O-SO 112 -6,3 C -2,6 C 0,0 km/h (0 Bft)
11.03.2014 23:05 -2,7 C 77 % 1026,6 hPa 0,0 l/m 0,0 km/h (0 Bft) O-SO 112 -6,2 C -2,6 C 0,0 km/h (0 Bft)
11.03.2014 23:10 -2,9 C 77 % 1026,6 hPa 0,0 l/m 0,0 km/h (0 Bft) O-SO 112 -6,4 C -2,6 C 0,0 km/h (0 Bft)
11.03.2014 23:15 -2,8 C 78 % 1026,6 hPa 0,0 l/m 0,0 km/h (0 Bft) O-SO 112 -6,1 C -2,6 C 0,0 km/h (0 Bft)
11.03.2014 23:20 -2,9 C 78 % 1026,6 hPa 0,0 l/m 0,0 km/h (0 Bft) O-SO 112 -6,2 C -2,6 C 0,0 km/h (0 Bft)
11.03.2014 23:25 -2,9 C 78 % 1026,6 hPa 0,0 l/m 0,0 km/h (0 Bft) O-SO 112 -6,2 C -2,6 C 0,0 km/h (0 Bft)
11.03.2014 23:30 -2,8 C 79 % 1026,6 hPa 0,0 l/m 0,0 km/h (0 Bft) O-SO 112 -5,9 C -2,6 C 0,0 km/h (0 Bft)
11.03.2014 23:35 -2,6 C 79 % 1026,6 hPa 0,0 l/m 0,0 km/h (0 Bft) O-SO 112 -5,7 C -2,6 C 0,0 km/h (0 Bft)
11.03.2014 23:40 -2,9 C 79 % 1026,6 hPa 0,0 l/m 0,0 km/h (0 Bft) O-SO 112 -6,0 C -2,6 C 0,0 km/h (0 Bft)
11.03.2014 23:45 -3,1 C 79 % 1026,6 hPa 0,0 l/m 0,0 km/h (0 Bft) O-SO 112 -6,2 C -2,6 C 0,0 km/h (0 Bft)
11.03.2014 23:50 -3,2 C 79 % 1026,6 hPa 0,0 l/m 0,0 km/h (0 Bft) O-SO 112 -6,3 C -2,6 C 0,0 km/h (0 Bft)
11.03.2014 23:55 -3,2 C 79 % 1026,6 hPa 0,0 l/m 0,0 km/h (0 Bft) O-SO 112 -6,3 C -2,6 C 0,0 km/h (0 Bft)
_ Min-Zeit 06:30 15:10 04:05 - 23:55 - - 21:10 15:15 23:55
Minimum _ -4,2 C 39 % 1021,8 hPa - 0,0 km/h (0 Bft) - - -6,5 C -4,0 C 0,0 km/h (0 Bft)
_ Max-Zeit 14:50 09:00 21:25 23:55 17:15 - - 09:15 16:35 17:20
Maximum _ 12,6 C 91 % 1026,9 hPa 0,0 l/m 8,4 km/h
N-NW (2 Bft)
- - 1,4 C 12,6 C 16,7 km/h
N-NO (3 Bft)
Durchschnitt _ 2,3 C 70 % 1024,6 hPa #0,0 l/m 1,0 km/h (0 Bft) NO - -3,2 C -1,1 C 1,3 km/h (1 Bft)